Regional Weather Roundup
Issued by NWS

Home | Current Version | Previous Version | Text Only | Print | Product List | Glossary Off
Versions: 1 2 3 4 5 6 7 8 9 10 11 12 13 14 15 16 17 18 19 20 21 22 23 24 25 26 27 28 29 30 31 32 33 34 35 36 37 38 39 40 41 42 43 44 45 46 47 48 49 50

000
ASUS43 KMPX 191010
RWRMN
WEATHER ROUNDUP FOR MINNESOTA
NATIONAL WEATHER SERVICE TWIN CITIES/CHANHASSEN MN
400 AM CST MON FEB 19 2018


NOTE: "FAIR" INDICATES FEW OR NO CLOUDS BELOW 12,000 FEET WITH NO
SIGNIFICANT WEATHER AND/OR OBSTRUCTIONS TO VISIBILITY. N/A MEANS
CURRENT SKY AND/OR WEATHER CONDITIONS ARE NOT AVAILABLE.

MNZ060>063-068>070-191100-
   Twin Cities Metro

CITY           SKY/WX    TMP DP  RH WIND       PRES   REMARKS
TWIN CITIES    CLOUDY    25  22  88 N15G23    29.82R WCI  13
ST PAUL        CLOUDY    26  21  81 N18G24    29.85R WCI  13
CRYSTAL        CLOUDY    22  16  78 N12G21    29.84R WCI  10
BLAINE         CLOUDY    23  19  86 N13G18    29.85R WCI  11
EDEN PRAIRIE   CLOUDY    24  18  77 N17G26    29.78R WCI  11
SOUTH ST PAUL  CLOUDY    27  22  80 N9G20     29.83R WCI  18
$$
MNZ001>005-007-008-013>017-022>024-027-028-191100-
   Northwest Minnesota

CITY           SKY/WX    TMP DP  RH WIND       PRES   REMARKS
BEMIDJI        FAIR       3  -1  82 N8        30.03F WCI -10
HALLOCK        FAIR       0  -8  71 N10       30.20S WCI -17
WARROAD        FAIR       0  -8  71 N5        30.15F WCI -10
CROOKSTON      FAIR       3  -4  72 N10       30.14R WCI -12
FOSSTON        FAIR       1  -4  78 N13       30.06F WCI -16
DETROIT LAKES  FAIR       9   5  85 N8        30.01F WCI  -4
MOORHEAD       FAIR       7   0  72 N21       30.07S WCI -13
PARK RAPIDS    CLOUDY     6   1  80 N13       29.99R WCI -10
$$
MNZ006-009>011-018-025>026-191100-
   North Central Minnesota

CITY           SKY/WX    TMP DP  RH WIND       PRES   REMARKS
BAUDETTE       FAIR       1  -4  79 N8        30.12R WCI -13
FLAG ISLAND    FAIR      -2  -8  78 N5        30.16S WCI -12
INTL FALLS     FAIR       4  -1  80 N8        30.12R WCI  -9
WASKISH        FAIR       5   0  78 N7        30.10R WCI  -7
BIG FORK       FAIR       5   0  78 N7        30.05R WCI  -7
LONGVILLE      MOCLDY     7   1  78 N8        29.99R WCI  -6
GRAND RAPIDS   FAIR       5   0  79 N10       30.03R WCI -10
CRANE LAKE     FAIR       1  -2  85 N5        30.10R WCI  -8
ORR            MOCLDY     1  -4  78 CALM      30.03R
WALKER         FAIR       5   0  81 N8G21     30.00S WCI  -8
$$
MNZ012-019>021-037-191100-
   Northeast Minnesota

CITY           SKY/WX    TMP DP  RH WIND       PRES   REMARKS
DULUTH         CLOUDY    12   7  80 N12       29.93R WCI  -2
ELY            FAIR       1  -2  85 N3        30.01R
HIBBING        CLOUDY     4  -1  80 N12       29.99R WCI -12
EVELETH        FAIR     N/A N/A N/A N8        30.00R
DULUTH HARBOR  CLOUDY    19  14  79 NE18      29.99S WCI   4
TWO HARBORS    CLOUDY    16  10  79 N6        29.94F WCI   7
GRAND MARAIS     N/A     12   1  61 N18G32    29.99R WCI  -6
G MARAIS ARPRT CLOUDY     3  -4  72 N9        29.93R WCI -11
$$
MNZ029>031-032-039>041-046>048-054>057-064-191100-
   West Central Minnesota

CITY           SKY/WX    TMP DP  RH WIND       PRES   REMARKS
FERGUS FALLS   CLOUDY     9   3  78 N15G25    29.98F WCI  -8
WHEATON        CLOUDY    10   3  72 NW15G22   30.04R WCI  -6
MORRIS         CLOUDY    12   7  79 N14       29.95R WCI  -3
ALEXANDRIA     CLOUDY    11   6  81 NE18G30   29.88F WCI  -7
ELBOW LAKE     CLOUDY    11   6  77 N18G25    29.95S WCI  -7
WADENA         MOCLDY     9   3  78 N17       29.94F WCI -10
GLENWOOD       MOCLDY    12   7  79 N21G26    29.89R WCI  -6
APPLETON       CLOUDY    16   9  73 N20G25    29.95R WCI  -1
BENSON         LGT SNOW  16   9  73 NE20G25   29.90S WCI  -1
MADISON        LGT SNOW  16  10  79 N20       29.96R WCI  -1
$$
MNZ033>034-036-042>043-049>051-058-059-191100-
   Central Minnesota

CITY           SKY/WX    TMP DP  RH WIND       PRES   REMARKS
ST CLOUD       LGT SNOW  14  11  87 N10       29.89R FOG     WCI   1
SAUK CENTRE    CLOUDY    12   7  79 N13G23    29.90R WCI  -3
PAYNESVILLE    LGT SNOW  14  11  90 N12G18    29.88F WCI   0
PINE RIVER     FAIR       7   1  78 N13G20    30.02R WCI  -9
BRAINERD       CLOUDY    10   3  73 N16       29.95S WCI  -7
STAPLES        CLOUDY     9   3  78 N13       29.94F WCI  -7
LONG PRAIRIE   FAIR      10   5  79 NW15G23   29.89F WCI  -6
LITTLE FALLS   LGT SNOW  12   3  67 N7        29.91F WCI   2
LITCHFIELD     FAIR      16  12  86 N17       29.85F WCI   0
BUFFALO        CLOUDY    19  13  78 N13G26    29.87F WCI   6
MAPLE LAKE     CLOUDY    19  15  86 N13G22    29.87F FOG     WCI   5
HUTCHINSON     CLOUDY    20  15  79 N12G23    29.83F WCI   8
$$
MNZ037-044-045-052-053-191100-
   East Central Minnesota

CITY           SKY/WX    TMP DP  RH WIND       PRES   REMARKS
PRINCETON      LGT SNOW  18  14  86 N8        29.89R WCI   7
MORA           LGT SNOW  14  10  85 N7        29.91F WCI   4
CAMBRIDGE      LGT SNOW  19  12  73 N8        29.90R WCI   9
RUSH CITY      LGT SNOW  17  13  86 N10G25    29.89R WCI   5
MOOSE LAKE     CLOUDY    14   9  79 N8        29.93S WCI   3
HINCKLEY       LGT SNOW  16  12  86 N15G22    29.90F WCI   1
CLOQUET        CLOUDY    12   7  79 N7        29.93F WCI   2
MCGREGOR       CLOUDY    10   5  79 N8        29.96S WCI  -1
$$
MNZ071>073-080-081-089-090-097-098-191100-
   Southwest Minnesota

CITY           SKY/WX    TMP DP  RH WIND       PRES   REMARKS
MONTEVIDEO     MOCLDY    16  10  79 NE17      29.91R WCI   0
GRANITE FALLS  CLOUDY    18  13  82 N20G25    29.88R WCI   2
CANBY          CLOUDY    14  10  82 N17G23    29.94R WCI  -3
MARSHALL       FLURRIES  15  11  83 N16       29.91R WCI  -1
REDWOOD FALLS  CLOUDY    18  11  74 N12G23    29.85R WCI   5
OLIVIA         CLOUDY    18  12  79 N17G23    29.86R WCI   2
PIPESTONE      CLOUDY    12   9  85 NE16G24   29.83R WCI  -4
WINDOM         CLOUDY    19   7  58 N23       29.81R WCI   2
WORTHINGTON    CLOUDY    16  13  88 N24G32    29.78R WCI  -2
JACKSON        CLOUDY    21  19  93 VRB18G28  29.78R WCI   6
TRACY          CLOUDY    17  14  87 N16       29.88R WCI   2
SLAYTON        CLOUDY    14  11  88 N22G31    29.83R WCI  -4
$$
MNZ065>067-074>077-082>085-091>093-191100-
   South Central Minnesota

CITY           SKY/WX    TMP DP  RH WIND       PRES   REMARKS
MANKATO        CLOUDY    26  22  84 N17       29.76F WCI  13
NEW ULM        CLOUDY    21  18  86 N16G25    29.80S WCI   7
ST JAMES       CLOUDY    23  19  86 NW14      29.81R WCI  11
FAIRMONT       CLOUDY    24  21  88 N18       29.78R WCI  10
GLENCOE        CLOUDY    23  19  84 N9G20     29.82F WCI  13
FARIBAULT      MOCLDY    25  21  86 N13G18    29.77F WCI  13
OWATONNA       FAIR      25  21  86 N14       29.75S WCI  13
WASECA         CLOUDY    27  23  86 N17       29.77R WCI  14
$$
MNZ078>079-086>088-094>096-191100-
   Southeast Minnesota

CITY           SKY/WX    TMP DP  RH WIND       PRES   REMARKS
ROCHESTER      FAIR      30  28  92 N5        29.71S WCI  25
RED WING       FAIR      27  21  80 CALM      29.79R
STANTON        FAIR      26  22  85 N15       29.75F WCI  13
DODGE CENTER   FAIR      25  23  93 N13       29.73S WCI  13
WINONA         FAIR      30  28  93 CALM      29.74R
AUSTIN         MOCLDY    30  28  93 NW5       29.71R WCI  25
PRESTON        FAIR      32  28  84 S5        29.72R WCI  27
$$
ABBREVIATIONS USED IN REMARKS
   TC - TEMPERATURES IN CELSIUS
  WCI - WIND CHILL INDEX
   HX - HEAT INDEX
  VSB - VISIBILITY
$$



USA.gov is the U.S. government's official web portal to all federal, state and local government web resources and services.